Regional Weather Roundup
Issued by NWS Pendleton, OR

Home | Current Version | Previous Version | Text Only | Print | Product List | Glossary On
Versions: 1 2 3 4 5 6 7 8 9 10 11 12 13 14 15 16 17 18 19 20 21 22 23 24 25 26 27 28 29 30 31 32 33 34 35 36 37 38 39 40 41 42 43 44 45 46 47 48 49 50
000
ASUS46 KPDT 190125
RWRPDT
PENDLETON REGIONAL WEATHER ROUNDUP
NATIONAL WEATHER SERVICE PENDLETON OREGON
600 PM PDT FRI APR 18 2014

NOTE: FAIR INDICATES FEW OR NO CLOUDS BELOW 12,000 FEET WITH NO
SIGNIFICANT WEATHER AND/OR OBSTRUCTIONS TO VISIBILITY.

# INDICATES UNOFFICIAL STATION AND DATA

WAZ520-190210-
EAST SLOPES OF WASHINGTON CASCADES

CITY            SKY/WX      TMP DP  RH  WIND    PRES   REMARKS
#BUMPING DAM    N/A         42  N/A N/A S2      N/A
#CLE ELUM HS    N/A         48  30  49  W6      29.96F
#CLE ELUM 2NW   N/A         47  28  47  W5      N/A
#CLE ELUM LAKE  N/A         47  32  56  W2      30.02F
#CLIFFDEL 2NW   N/A         49  27  42  N3      N/A
#GLENWOOD       N/A         56  34  43  W2      29.99F
#MANASTASH CYN  N/A         48  26  42  CALM    29.95S
#NELSON         N/A         48  33  56  E1      30.03F
#NELSON 3SW     N/A         43  33  67  CALM    30.23F
#NILE           N/A         54  30  40  W6      29.31F
#PEOH POINT     N/A         41  28  59  W3      N/A
#RONALD 2NW     N/A         48  35  60  W3      29.88F
#TEANAWAY 4NE   N/A         49  32  52  W2      N/A
#TROUT LAKE HS  N/A         54  34  47  NW3     N/A
#TROUT LAKE 1NE N/A         53  33  46  W7      30.01F
$$

WAZ521-190210-
SIMCOE HIGHLANDS

CITY            SKY/WX      TMP DP  RH  WIND    PRES   REMARKS
#BICKLETON HS   N/A         50  18  28  N3      30.00F
#CENTERVILLE 4W N/A         56  33  42  W6      29.74F
#CENTERVILLE 1SWN/A         55  31  40  NW5     29.97F
#GOLDENDALE 1NE N/A         56  29  35  W2      N/A
#GOLDENDALE 1S  N/A         56  37  49  CALM    28.16F
#GOLDENDALE 5WNWN/A         56  34  43  S1      29.98F
#GOODNOE HILLS  N/A         59  34  39  W8      29.92F
#LYLE 6NE       N/A         56  27  33  W3      29.98F
$$

WAZ026-190210-
KITTITAS VALLEY

CITY            SKY/WX      TMP DP  RH  WIND    PRES   REMARKS
ELLENSBURG AP   MOCLDY      53  29  39  NW21    29.99S
#ELLENSBURG CWU N/A         52  30  43  NW15    29.96S
#ELLENSBURG 3NE N/A         50  32  50  NW9     29.99S
#ELLENSBURG     N/A         53  31  43  N12     N/A
#ELLENSBURG 1E  N/A         51  29  42  NW2     N/A
#KITTITAS 4N    N/A         50  32  50  W12     30.13F
#KITTITAS 3S    N/A         52  33  48  NW15    29.98F
#THORP 6N       N/A         45  29  53  NW16G25 30.03F WCI 38
$$

WAZ027-190210-
YAKIMA VALLEY

CITY            SKY/WX      TMP DP  RH  WIND    PRES   REMARKS
YAKIMA AIRPORT  PTCLDY      60  25  26  W8      29.98F
YAKIMA-VAGABOND PTCLDY      57  27  31  N8      29.99F
#COWICHE 1N     N/A         55  32  41  W2      30.13F
#DONALD 2NE     N/A         66  11  11  S1      30.30F
#GRANDVIEW      N/A         59  25  27  W1      30.00F
#MABTON         N/A         60  29  31  W3      29.99F
#MOXEE 2E       N/A         59  13  16  CALM    29.91S
#NACHES 2SW     N/A         55  32  41  SW2     30.00S
#OUTLOOK DOT    N/A         60  26  27  NW6     N/A
#SELAH 8E       N/A         53  27  36  N8      N/A
#TERRACE HTS    N/A         62  31  31  N1      29.96F
#TOPPENISH      N/A         59  29  32  CALM    29.91F
#WAPATO 4NE     N/A         66  11  11  S1      30.30F
#WEST VALLEY    N/A         58  28  32  NW1     30.00F
#W YAKIMA       N/A         58  30  34  N1      29.98F
#WHITE SWAN 5E  N/A         60  29  31  W2      29.98F
#WILEY CITY 3W  N/A         59  23  25  CALM    29.99F
$$

WAZ028-190210-
LOWER COLUMBIA BASIN...WASHINGTON

CITY            SKY/WX      TMP DP  RH  WIND    PRES   REMARKS
PASCO           PTCLDY      63  26  24  W9      29.99F
PROSSER AWOS    N/A         59  28  30  W3      30.02F
RICHLAND AWOS   PTCLDY      63  25  23  W9      29.99F
#BASIN CITY 5SW N/A         62  33  34  W7      29.97F
#BENTON CITY    N/A         60  30  32  W2      29.90F
#CONNELL 5N     N/A         61  29  30  NW1     29.98F
#CONNELL 5NW    N/A         59  32  36  W7      29.94F
#ELTOPIA        N/A         63  30  29  SW5     29.94F
#ELTOPIA 6NW    N/A         61  28  28  W6      28.94F
#KENNEWICK 3S   N/A         61  34  36  S5      30.00F
#PATERSON       N/A         60  36  41  SW7     29.98F
#PROSSER        N/A         60  25  26  NW2     29.99F
#SAGEMOOR 2W    N/A         59  32  36  SW7     29.83F
#TOUCHET 2S     N/A         59  35  40  W3      29.98F
#WEST PASCO     N/A         64  31  29  W5      29.99S
$$

WAZ029-190210-
FOOTHILLS OF THE BLUES...WASHINGTON

CITY            SKY/WX      TMP DP  RH  WIND    PRES   REMARKS
WALLA WALLA AP  MOCLDY      58  27  30  SW7     30.01F
#COLLEGE PLACE  N/A         66  25  21  SW7     30.01F
#LOWDEN 2SE     N/A         62  32  32  W8      29.97F
#PLEASANT VIEW 1N/A         54  28  36  S5      30.05F
#PRESCOTT       N/A         60  28  29  SW6     29.99F
#SUDBURY        N/A         61  N/A N/A W6      N/A
#WHITMAN COLLEGEN/A         58  26  29  SW8     30.06F
#WAITSBURG 8N   N/A         57  21  24  S7      29.82F
#WALLA WALLA 5E N/A         58  31  36  S14     N/A
#WHITMAN MISSIONN/A         61  31  32  SW8     30.01F
$$

WAZ030-190210-
BLUE MOUNTAINS...WASHINGTON

CITY            SKY/WX      TMP DP  RH  WIND    PRES   REMARKS
$$

ORZ009-041-WAZ024-190210-
COLUMBIA RIVER GORGE

CITY            SKY/WX      TMP DP  RH  WIND    PRES   REMARKS
HOOD RIVER AP   CLOUDY      59  34  39  NW7     29.99F
THE DALLES AP   PTCLDY      61  34  36  NW8     29.98F
#ARLINGTON AIRPON/A         58  33  39  SW7     N/A
#ARLINGTON HS   N/A         61  30  31  NW15    29.90F
#CELILO DOT     N/A         64  30  28  N3      N/A
#MARYHILL 2W    N/A         59  32  36  SW3     N/A
#MOSIER 1S      N/A         59  28  30  CALM    30.03F
#MURDOCK        N/A         62  38  41  W5      30.00F
#RUFUS DOT      N/A         54  23  30  W10     N/A

$$

ORZ510-190210-
NORTH CENTRAL OREGON

CITY            SKY/WX      TMP DP  RH  WIND    PRES   REMARKS
#CHENOWITH 1W   N/A         54  31  41  W17     N/A
#COW CYN RST AREN/A         55  19  24  CALM    N/A
#GRASS VALLEY   N/A         52  35  52  N5      N/A
#GRASS VALLEY 1SN/A         54  35  48  CALM    30.03F
#KENT DOT       N/A         54  18  24  N5      N/A
#MAUPIN SCHOOL  N/A         61  32  33  N5      29.99F
#SHANIKO 5WSW   N/A         53  10  17  NE1     N/A
#SHANIKO 4NW    N/A         54  18  24  S1      29.98F
#TYGH VALLEY 2NEN/A         60  34  37  NE3     29.97F
#WAPANITIA AIRPON/A         58  28  32  NE5     30.00F
#WASCO DOT      N/A         60  28  29  W2      N/A
#WASCO 5NE      N/A         56  35  45  CALM    30.01F
$$

ORZ511-190210-
CENTRAL OREGON

CITY            SKY/WX      TMP DP  RH  WIND    PRES   REMARKS
BEND AIRPORT    PTCLDY      57  16  20  N6      29.95F
MADRAS AIRPORT  PTCLDY      57  18  21  NE7     29.98F
REDMOND AIRPORT PTCLDY      59  15  18  N3      29.95F
#BEND 6E        N/A         57  14  18  CALM    29.91F
#BEND 1SW       N/A         57  -10  6  NE2     N/A
#BEND-AWBREY    N/A         59  22  24  SW2     29.97F
#BEND-KIM LN    N/A         58  19  22  N2      29.92F
#CROOKED RVR RANN/A         58  22  25  E3      29.95F
#CULVER         N/A         58  18  21  N6      29.92F
#LAKE BILLY CHINN/A         57  -1   9  NE8     30.01F
#POWELL BUTTE   N/A         58  26  29  CALM    29.60F
#PRINEVILLE AIR N/A         56  23  28  NE3     29.93F
#PRINEVILLE 3N  N/A         57  26  30  W7      29.91F
#WARM SPRINGS   N/A         63  28  26  CALM    29.94F


ORZ509-190210-
EAST SLOPES OF OREGON CASCADES

CITY            SKY/WX      TMP DP  RH  WIND    PRES   REMARKS
#BLUE BOX PASS  N/A         47  -4  11  CALM    N/A
#CAMP SHERMAN   N/A         58  22  25  CALM    29.97S
#LA PINE DOT    N/A         60   2   9  NW8     N/A
#LA PINE 4NW    N/A         58  22  25  CALM    29.98F
#LAVA BUTTE DOT N/A         54  18  24  CALM    N/A
#SISTERS AIRPOR N/A         58  29  33  NE7     29.96F
#SISTERS ODOT   N/A         57  N/A N/A CALM    N/A
#SISTERS 3N     N/A         58  22  25  N8      30.01S
#SUNRIVER       N/A         57  19  22  N1      29.84F
#SUNRIVER AP    N/A         58  20  23  NE2     29.92F
#TUMALO 3W      N/A         59  19  21  CALM    29.85F
#WANOGA BUTTE D N/A         44  14  29  NE6     N/A

$$

ORZ044-190210-
LOWER COLUMBIA BASIN...OREGON

CITY            SKY/WX      TMP DP  RH  WIND    PRES   REMARKS
HERMISTON       PTCLDY      61  28  28  W9      29.99F
#BOARDMAN SCHOOLN/A         62  32  32  W1      29.98F
#BOARDMAN 3W    N/A         64  37  37  SW2     29.71F
#BOARDMAN 8SW   N/A         60  34  37  W6      29.99F
#IONE SCHOOL    N/A         58  30  34  W3      29.98F
#IRRIGON 4NW    N/A         64  33  31  S7      N/A
#UMATILLA SCHOOLN/A         63  38  39  SW5     30.06R
#UMATILLA       N/A         63  28  26  SW6     29.97F
$$

ORZ507-190210-
NORTHERN FOOTHILLS OF THE BLUES

CITY            SKY/WX      TMP DP  RH  WIND    PRES   REMARKS
PENDLETON AIRPT PTCLDY      58  28  32  NW9     29.99F
#ADAMS 3WNW     N/A         56  27  33  W8      30.01F
#ATHENA         N/A         57  30  35  SW1     30.04F
#HELIX SCHOOL   N/A         56  27  33  W6      30.01F
#HELIX 3N       N/A         53  29  39  W7      29.97F
#M-F FERNDALE   N/A         64  28  25  CALM    30.00F
#M-F GROVE ELEM N/A         59  26  28  W2      30.00F
#M-FREEWATER 5SEN/A         58  33  39  W2      30.01F
#PDT AQUATIC CTRN/A         60  32  35  W6      30.01S
#PDT SUNRIDGE   N/A         59  35  40  W5      30.01F
#PILOT ROCK     N/A         57  29  34  W1      30.01F
#TUTUILLA       N/A         55  30  38  W5      29.93F
#UMAPINE 2E     N/A         60  32  35  SW6     29.94F
#WESTON SCHOOL  N/A         55  25  31  NW5     30.04F

$$

ORZ508-190210-
SOUTHERN FOOTHILLS OF THE BLUES

CITY            SKY/WX      TMP DP  RH  WIND    PRES   REMARKS
LEXINGTON       PTCLDY      57  32  38  NW5     30.01F
#AJAX           N/A         54  30  40  N1      30.01F
#CONDON SCHOOL  N/A         55  28  35  CALM    29.96F
#CONDON 5W      N/A         52  23  32  NW2     29.96F
#FOSSIL SCHOOL  N/A         56  27  33  CALM    29.96F
#HEPPNER 4NE    N/A         51  29  42  W5      30.03F
#LEXINGTON 2SE  N/A         58  32  37  CALM    29.97F
#MIKKALO        N/A         57  25  29  N7      29.99F
#OLEX 4N        N/A         57  32  38  W3      30.00F
#RUGGS 5NE      N/A         56  30  37  W6      30.23F
#RUGGS 2SW      N/A         53  29  39  N6      30.06F

$$

ORZ502-503-190210-
BLUE MOUNTAINS

CITY            SKY/WX      TMP DP  RH  WIND    PRES   REMARKS
MEACHAM         PTCLDY      49  27  42  VRB3    30.00F
#BATTLE MTN DOT N/A         46  21  37  NW2     N/A
#HARDMAN 10S    N/A         50  23  34  CALM    30.04F
#HEPPNER 15SE   N/A         46  26  45  NW5     29.90F
#LADD CYN SMT   N/A         51  16  24  N8      N/A
#LADD CREEK ODOTN/A         53  22  29  NE9     N/A
#LONG CREEK HS  N/A         52  24  33  N5      29.93F
#N POWDER DOT   N/A         52  27  38  NE16    N/A
#TOLLGATE       N/A         40  25  55  SW2     29.96F
#TOLLGATE 9W    N/A         48  26  42  W6      N/A
#TROY SCHOOL    N/A         59  27  29  S1      29.85S
#UKIAH          N/A         51  27  39  N8      30.05S
#WESTON 4E      N/A         50  31  48  S6      30.00F
$$

ORZ505-190210-
JOHN DAY BASIN

CITY            SKY/WX      TMP DP  RH  WIND    PRES   REMARKS
JOHN DAY        PTCLDY      55  23  29  CALM    29.99F
#JOHN DAY KJDY  N/A         60  31  33  W2      29.97R
#DAYVILLE SCHOOLN/A         61  17  18  NE1     29.94F
#MONUMENT HS    N/A         62  14  15  CALM    29.92F
#MT. VERNON 5SE N/A         51  24  34  CALM    29.94F
$$

ORZ506-190210-
OCHOCO AND JOHN DAY HIGHLANDS

CITY            SKY/WX      TMP DP  RH  WIND    PRES   REMARKS
#ANTONE         N/A         32  N/A N/A CALM    N/A
#HORSE RIDGE DO N/A         56  14  19  N7      N/A
#KEYES SMT DOT  N/A         50  24  36  W3      N/A
#PAULINA SCHOOL N/A         62  14  15  CALM    29.95F
#PRAIRIE CITY   N/A         55  20  25  CALM    29.96S
#SENECA 9NW     N/A         50  24  36  NE1     29.99R
$$

ORZ049-190210-
GRANDE RONDE VALLEY

CITY            SKY/WX      TMP DP  RH  WIND    PRES   REMARKS
LA GRANDE       PTCLDY      55  23  29  N7      29.98F
#COVE           N/A         55  26  32  N1      29.92F
#COVE SCHOOL    N/A         54  23  30  CALM    29.98S
#COVE 6NW       N/A         54  26  34  CALM    30.05F
#ELGIN 3N       N/A         56  23  28  W2      29.73F
#ELGIN 1E       N/A         56  26  31  NW5     N/A
#IMBLER SCHOOL  N/A         55  23  29  CALM    29.95F
#ISLAND CITY 4N N/A         56  30  37  NW1     29.95F
#LADD CYN DOT   N/A         55  20  25  NW8     N/A
#LA GRANDE ELEM N/A         54  25  32  N3      29.97F
#UNION 1S       N/A         59  26  28  NW7     29.92F
$$

ORZ050-190210-
WALLOWA COUNTY

CITY            SKY/WX      TMP DP  RH  WIND    PRES   REMARKS
JOSEPH AIRPORT  MOCLDY      50  16  25  N5      30.01S
#ENTERPRISE HS  N/A         51  22  32  N5      30.00S
#IMNAHA SCHOOL  N/A         58  13  17  CALM    29.89F
#JOSEPH 3N      N/A         50  23  34  N3      30.02F
#LOSTINE        N/A         51  21  30  N5      29.81S
#MT HOWARD 8000 N/A         31  14  49  NW3     29.98S
#PROMISE 1S     N/A         47  23  38  SE6     30.14R
#SHEEP RDG 7000 N/A         34  11  38  CALM    30.14S
#WALLOWA SCHOOL N/A         53  21  28  W2      30.94F



$$



USA.gov is the U.S. government's official web portal to all federal, state and local government web resources and services.